Estherville, IA

11:40 AM CDT on September 26, 2017 (GMT -0500)
Estherville Municipal

Weather History for KEST - July, 2013

Change the Weather History Date:

Thursday, July 4, 2013

  Actual Average Record
Temperature  
Mean Temperature 73 °F 72 °F  
Max Temperature 87 °F 83 °F 100 °F (1990)
Min Temperature 58 °F 61 °F 43 °F (1967)
Degree Days  
Heating Degree Days 0 0  
Month to date heating degree days 0 0  
Since 1 June heating degree days 54 41  
Since 1 July heating degree days 0 0  
Cooling Degree Days 8 7  
Month to date cooling degree days 22 28  
Year to date cooling degree days 205 201  
Since 1 June cooling degree days 172 165  
Growing Degree Days 23 (Base 50)    
Moisture  
Dew Point 54 °F    
Average Humidity 58    
Maximum Humidity 87    
Minimum Humidity 28    
Precipitation  
Precipitation 0.00 in 0.13 in 2.50 in (1962)
Month to date precipitation 0.00 0.52  
Sea Level Pressure  
Sea Level Pressure 29.93 in    
Wind  
Wind Speed 11 mph (South)    
Max Wind Speed 22 mph    
Max Gust Speed 29 mph    
Visibility 10 miles    
Events      
T = Trace of Precipitation, MM = Missing Value Source: NWS Daily Summary

Daily Weather History Graph

Daily Weather History Graph

Search for Another Location

Airport or City:

Trip Planner

Search our weather history database for the weather conditions in past years. The results will help you decide how hot, cold, wet, or windy it might be!

Date:

Astronomy

Jul. 04, 2013 Rise Set
Actual Time 5:44 AM CDT 9:02 PM CDT
Civil Twilight 5:08 AM CDT 9:37 PM CDT
Nautical Twilight 4:22 AM CDT 10:23 PM CDT
Astronomical Twilight 3:26 AM CDT 11:20 PM CDT
Moon 3:03 AM CDT (7/4) 6:05 PM CDT (7/4)
Length of Visible Light 16h 29m
Length of Day
15h 18m
Waning Crescent, 11% of the Moon is Illuminated
Jul 4
Waning Crescent
Jul 8
New
Jul 15
First Quarter
Jul 22
Full
Jul 29
Last Quarter

Hourly Weather History & Observations

Time (CDT) Temp. Heat Index Dew Point Humidity Pressure Visibility Wind Dir Wind Speed Gust Speed Precip Events Conditions
12:52 AM 66.0 °F - 55.9 °F 70% 29.97 in 10.0 mi South 6.9 mph - N/A   Clear
1:52 AM 64.9 °F - 55.9 °F 73% 29.96 in 10.0 mi South 9.2 mph - N/A   Clear
2:52 AM 63.0 °F - 55.9 °F 78% 29.95 in 10.0 mi South 6.9 mph - N/A   Clear
3:52 AM 60.1 °F - 55.0 °F 83% 29.96 in 10.0 mi South 6.9 mph - N/A   Clear
4:52 AM 60.1 °F - 55.0 °F 83% 29.96 in 10.0 mi South 8.1 mph - N/A   Clear
5:52 AM 59.0 °F - 55.0 °F 87% 29.96 in 8.0 mi SSW 5.8 mph - N/A   Clear
6:52 AM 60.1 °F - 55.9 °F 86% 29.96 in 8.0 mi South 5.8 mph - N/A   Clear
7:52 AM 66.9 °F - 57.0 °F 70% 29.96 in 9.0 mi South 5.8 mph - N/A   Clear
8:52 AM 73.0 °F - 57.0 °F 57% 29.97 in 10.0 mi SSW 6.9 mph - N/A   Clear
9:52 AM 77.0 °F - 55.9 °F 48% 29.96 in 10.0 mi South 9.2 mph - N/A   Clear
10:52 AM 81.0 °F 80.4 °F 53.1 °F 38% 29.94 in 10.0 mi South 10.4 mph - N/A   Clear
11:52 AM 82.9 °F 82.1 °F 55.9 °F 39% 29.94 in 10.0 mi South 11.5 mph - N/A   Clear
12:52 PM 86.0 °F 84.0 °F 53.1 °F 32% 29.92 in 10.0 mi SSW 16.1 mph 21.9 mph N/A   Clear
1:52 PM 86.0 °F 84.0 °F 53.1 °F 32% 29.91 in 10.0 mi SSW 15.0 mph 24.2 mph N/A   Clear
2:52 PM 87.1 °F - 50.0 °F 28% 29.90 in 10.0 mi SSW 17.3 mph 25.3 mph N/A   Clear
3:52 PM 87.1 °F - 51.1 °F 29% 29.90 in 10.0 mi SSW 23.0 mph 28.8 mph N/A   Partly Cloudy
4:52 PM 87.1 °F 84.9 °F 53.1 °F 31% 29.89 in 10.0 mi SSW 17.3 mph 26.5 mph N/A   Clear
5:52 PM 86.0 °F - 52.0 °F 31% 29.88 in 10.0 mi South 18.4 mph 24.2 mph N/A   Clear
6:52 PM 84.0 °F - 52.0 °F 33% 29.88 in 10.0 mi South 17.3 mph 24.2 mph N/A   Clear
7:52 PM 81.0 °F 80.4 °F 53.1 °F 38% 29.88 in 10.0 mi South 11.5 mph - N/A   Clear
8:52 PM 75.9 °F - 54.0 °F 46% 29.88 in 10.0 mi South 8.1 mph - N/A   Clear
9:52 PM 73.0 °F - 54.0 °F 51% 29.88 in 10.0 mi South 9.2 mph - N/A   Clear
10:52 PM 73.0 °F - 54.0 °F 51% 29.89 in 10.0 mi South 10.4 mph - N/A   Clear
11:52 PM 71.1 °F - 55.0 °F 57% 29.90 in 10.0 mi South 10.4 mph - N/A   Clear